User: anonymous   Login
Location: Columbia
(38.9520°N, 92.3340°W)
Time: 11:34:38
(UTC-05:00)
Language:

SL-08 RB Rocket - Orbit

View from above orbital plane
View from above orbital plane
View from above satellite
View from above satellite

Ground track
Ground track

The orbit data is extracted from the following two-line orbital elements,

1 26387U 00033D   18142.80144241 +.00000027 +00000-0 +13020-4 0  9991
2 26387 097.9229 202.5059 0025894 339.6110 136.1438 14.68386452215405
Epoch (UTC): 22 May 2018 19:14:04
Eccentricity: 0.0025894
inclination: 97.9229°
perigee height: 648 km
apogee height: 684 km
right ascension of ascending node: 202.5059°
argument of perigee: 339.6110°
revolutions per day: 14.68386452
mean anomaly at epoch: 136.1438°
orbit number at epoch: 21540

The dashed part of the orbit path shows where the satellite is in the earth's shadow,  

DLR